Location: Unspecified
(45.3712°N, 0.6436°E)
Time: 14:00:47
(UTC+02:00)

ISS - Pass Details

Date: 13 July 2018
Orbit: 402 x 408 km, 51.6° (Epoch: 21 July)

Event Time Altitude Azimuth Distance (km) Brightness Sun altitude
Rises 05:03:42 0° 286° (WNW) 2,332 -0.2 -11.3°
Reaches altitude 10° 05:06:00 10° 300° (WNW) 1,472 -1.1 -11.0°
Maximum altitude 05:08:51 26° 360° (N) 845 -1.7 -10.6°
Drops below altitude 10° 05:11:42 10° 59° (ENE) 1,474 0.4 -10.3°
Sets 05:14:00 0° 73° (ENE) 2,336 1.2 -10.0°
